Location: Monteux
(44.0348°N, 4.9972°E)
Time: 17:57:54
(UTC+00:00)

SL-16 R/B - Pass Details

Date: 30 November 2020
Orbit: 841 x 849 km, 71.0° (Epoch: 17 January)

Event Time Altitude Azimuth Distance (km) Brightness Sun altitude
Rises 17:04:08 0° 209° (SSW) 3,383 6.2 -10.7°
Reaches altitude 10° 17:06:34 10° 211° (SSW) 2,452 5.4 -11.1°
Maximum altitude 17:12:11 73° 296° (WNW) 880 2.4 -12.1°
Drops below altitude 10° 17:17:51 10° 22° (NNE) 2,467 4.3 -13.1°
Enters shadow 17:19:04 - 23° (NNE) 2,927 4.6 -13.3°
